Time,TemperatureF,DewpointF,PressureIn,WindDirection,WindDirectionDegrees,WindSpeedMPH,WindSpeedGustMPH,Humidity,HourlyPrecipIn,Conditions,Clouds,dailyrainin,SoftwareType,DateUTC
2013-11-15 00:14:00,29.4,21.0,30.23,NNW,333,0.0,1.0,70,0.00,,,0.00,weatherlink.com 1.10,2013-11-15 05:14:00,
2013-11-15 00:29:00,29.3,21.0,30.23,North,11,0.0,2.0,71,0.00,,,0.00,weatherlink.com 1.10,2013-11-15 05:29:00,
2013-11-15 00:44:00,28.8,20.0,30.22,North,11,0.0,0.0,71,0.00,,,0.00,weatherlink.com 1.10,2013-11-15 05:44:00,
2013-11-15 00:59:00,28.0,21.0,30.22,North,8,1.0,1.0,74,0.00,,,0.00,weatherlink.com 1.10,2013-11-15 05:59:00,
2013-11-15 01:14:00,28.0,21.0,30.22,NNW,338,0.0,1.0,74,0.00,,,0.00,weatherlink.com 1.10,2013-11-15 06:14:00,
2013-11-15 01:29:00,27.9,21.0,30.23,NNW,337,0.0,0.0,75,0.00,,,0.00,weatherlink.com 1.10,2013-11-15 06:29:00,
2013-11-15 01:44:00,27.7,21.0,30.23,NNW,340,0.0,1.0,77,0.00,,,0.00,weatherlink.com 1.10,2013-11-15 06:44:00,
2013-11-15 01:59:00,28.1,21.0,30.23,NNW,342,0.0,1.0,75,0.00,,,0.00,weatherlink.com 1.10,2013-11-15 06:59:00,
2013-11-15 02:14:00,28.0,22.0,30.24,ESE,112,0.0,2.0,79,0.00,,,0.00,weatherlink.com 1.10,2013-11-15 07:14:00,
2013-11-15 02:29:00,28.1,21.0,30.24,ESE,112,0.0,1.0,76,0.00,,,0.00,weatherlink.com 1.10,2013-11-15 07:29:00,
2013-11-15 02:44:00,27.8,21.0,30.24,ESE,112,0.0,1.0,76,0.00,,,0.00,weatherlink.com 1.10,2013-11-15 07:44:00,
2013-11-15 02:59:00,27.8,21.0,30.23,ESE,116,0.0,1.0,76,0.00,,,0.00,weatherlink.com 1.10,2013-11-15 07:59:00,
2013-11-15 03:14:00,27.1,21.0,30.23,NNW,342,1.0,1.0,78,0.00,,,0.00,weatherlink.com 1.10,2013-11-15 08:14:00,
2013-11-15 03:29:00,26.6,21.0,30.24,North,354,2.0,2.0,79,0.00,,,0.00,weatherlink.com 1.10,2013-11-15 08:29:00,
2013-11-15 03:44:00,26.8,21.0,30.24,North,352,0.0,1.0,79,0.00,,,0.00,weatherlink.com 1.10,2013-11-15 08:44:00,
2013-11-15 03:59:00,26.2,21.0,30.24,North,352,0.0,0.0,79,0.00,,,0.00,weatherlink.com 1.10,2013-11-15 08:59:00,
2013-11-15 04:14:00,26.0,21.0,30.24,North,352,0.0,0.0,80,0.00,,,0.00,weatherlink.com 1.10,2013-11-15 09:14:00,
2013-11-15 04:29:00,26.6,21.0,30.24,SSE,167,0.0,1.0,80,0.00,,,0.00,weatherlink.com 1.10,2013-11-15 09:29:00,
2013-11-15 04:44:00,26.7,21.0,30.23,SE,146,0.0,1.0,78,0.00,,,0.00,weatherlink.com 1.10,2013-11-15 09:44:00,
2013-11-15 04:59:00,26.8,21.0,30.24,SSE,155,0.0,1.0,78,0.00,,,0.00,weatherlink.com 1.10,2013-11-15 09:59:00,
2013-11-15 05:14:00,26.3,20.0,30.25,SSE,164,0.0,0.0,77,0.00,,,0.00,weatherlink.com 1.10,2013-11-15 10:14:00,
2013-11-15 05:29:00,25.9,20.0,30.25,SSE,162,0.0,1.0,79,0.00,,,0.00,weatherlink.com 1.10,2013-11-15 10:29:00,
2013-11-15 05:44:00,25.7,21.0,30.25,NNW,332,1.0,2.0,81,0.00,,,0.00,weatherlink.com 1.10,2013-11-15 10:44:00,
2013-11-15 05:59:00,25.4,21.0,30.25,NW,323,0.0,2.0,82,0.00,,,0.00,weatherlink.com 1.10,2013-11-15 10:59:00,
2013-11-15 06:14:00,25.5,20.0,30.26,West,273,1.0,2.0,81,0.00,,,0.00,weatherlink.com 1.10,2013-11-15 11:14:00,
2013-11-15 06:29:00,25.6,21.0,30.26,WSW,241,0.0,2.0,81,0.00,,,0.00,weatherlink.com 1.10,2013-11-15 11:29:00,
2013-11-15 06:44:00,25.2,20.0,30.27,SE,124,0.0,2.0,81,0.00,,,0.00,weatherlink.com 1.10,2013-11-15 11:44:00,
2013-11-15 06:59:00,24.6,20.0,30.27,SSE,162,0.0,0.0,81,0.00,,,0.00,weatherlink.com 1.10,2013-11-15 11:59:00,
2013-11-15 07:14:00,24.8,20.0,30.28,SW,214,0.0,1.0,83,0.00,,,0.00,weatherlink.com 1.10,2013-11-15 12:14:00,
2013-11-15 07:29:00,25.1,21.0,30.28,SSW,212,0.0,0.0,83,0.00,,,0.00,weatherlink.com 1.10,2013-11-15 12:29:00,
2013-11-15 07:44:00,25.7,21.0,30.28,SSW,203,0.0,1.0,82,0.00,,,0.00,weatherlink.com 1.10,2013-11-15 12:44:00,
2013-11-15 07:59:00,27.1,21.0,30.29,West,277,0.0,2.0,79,0.00,,,0.00,weatherlink.com 1.10,2013-11-15 12:59:00,
2013-11-15 08:14:00,29.0,23.0,30.29,SE,143,0.0,1.0,77,0.00,,,0.00,weatherlink.com 1.10,2013-11-15 13:14:00,
2013-11-15 08:29:00,30.5,23.0,30.28,SE,141,0.0,1.0,75,0.00,,,0.00,weatherlink.com 1.10,2013-11-15 13:29:00,
2013-11-15 08:44:00,32.3,25.0,30.28,SW,214,0.0,1.0,73,0.00,,,0.00,weatherlink.com 1.10,2013-11-15 13:44:00,
2013-11-15 08:59:00,34.3,25.0,30.28,SSW,200,0.0,1.0,70,0.00,,,0.00,weatherlink.com 1.10,2013-11-15 13:59:00,
2013-11-15 09:14:00,37.2,25.0,30.28,South,169,2.0,4.0,61,0.00,,,0.00,weatherlink.com 1.10,2013-11-15 14:14:00,
2013-11-15 09:29:00,39.6,24.0,30.29,South,170,2.0,4.0,55,0.00,,,0.00,weatherlink.com 1.10,2013-11-15 14:29:00,
2013-11-15 09:44:00,41.3,24.0,30.29,SSW,196,0.0,3.0,51,0.00,,,0.00,weatherlink.com 1.10,2013-11-15 14:44:00,
2013-11-15 09:59:00,42.8,24.0,30.29,SW,217,3.0,9.0,47,0.00,,,0.00,weatherlink.com 1.10,2013-11-15 14:59:00,
2013-11-15 10:29:00,45.0,23.0,30.29,SW,225,4.0,9.0,42,0.00,,,0.00,weatherlink.com 1.10,2013-11-15 15:29:00,
2013-11-15 10:44:00,46.3,24.0,30.29,ESE,121,1.0,8.0,42,0.00,,,0.00,weatherlink.com 1.10,2013-11-15 15:44:00,
2013-11-15 10:59:00,48.3,24.0,30.28,South,174,3.0,5.0,39,0.00,,,0.00,weatherlink.com 1.10,2013-11-15 15:59:00,
2013-11-15 11:14:00,49.2,24.0,30.27,SSE,166,5.0,7.0,37,0.00,,,0.00,weatherlink.com 1.10,2013-11-15 16:14:00,
2013-11-15 11:29:00,50.3,25.0,30.27,SE,139,2.0,5.0,37,0.00,,,0.00,weatherlink.com 1.10,2013-11-15 16:29:00,
2013-11-15 11:44:00,49.9,25.0,30.25,SSE,150,6.0,7.0,38,0.00,,,0.00,weatherlink.com 1.10,2013-11-15 16:44:00,
2013-11-15 11:59:00,51.5,25.0,30.24,SW,219,0.0,4.0,36,0.00,,,0.00,weatherlink.com 1.10,2013-11-15 16:59:00,
2013-11-15 12:14:00,53.2,26.0,30.24,SSE,155,0.0,4.0,35,0.00,,,0.00,weatherlink.com 1.10,2013-11-15 17:14:00,
2013-11-15 12:45:00,56.8,26.0,30.23,WNW,287,3.0,7.0,30,0.00,,,0.00,weatherlink.com 1.10,2013-11-15 17:45:00,
2013-11-15 13:00:00,56.5,24.0,30.22,WSW,243,2.0,6.0,28,0.00,,,0.00,weatherlink.com 1.10,2013-11-15 18:00:00,
2013-11-15 13:15:00,57.0,23.0,30.20,WNW,291,0.0,4.0,27,0.00,,,0.00,weatherlink.com 1.10,2013-11-15 18:15:00,
2013-11-15 13:30:00,57.2,22.0,30.20,West,260,3.0,5.0,26,0.00,,,0.00,weatherlink.com 1.10,2013-11-15 18:30:00,
2013-11-15 13:45:00,58.6,23.0,30.20,West,269,1.0,4.0,25,0.00,,,0.00,weatherlink.com 1.10,2013-11-15 18:45:00,
2013-11-15 14:00:00,59.0,20.0,30.20,SW,229,4.0,9.0,22,0.00,,,0.00,weatherlink.com 1.10,2013-11-15 19:00:00,
2013-11-15 14:15:00,58.7,19.0,30.20,WSW,248,5.0,10.0,21,0.00,,,0.00,weatherlink.com 1.10,2013-11-15 19:15:00,
2013-11-15 14:30:00,59.2,20.0,30.20,WSW,241,2.0,13.0,22,0.00,,,0.00,weatherlink.com 1.10,2013-11-15 19:30:00,
2013-11-15 14:45:00,60.1,17.0,30.19,SW,236,4.0,7.0,19,0.00,,,0.00,weatherlink.com 1.10,2013-11-15 19:45:00,
2013-11-15 15:00:00,58.6,17.0,30.19,SSW,204,4.0,9.0,20,0.00,,,0.00,weatherlink.com 1.10,2013-11-15 20:00:00,
2013-11-15 15:15:00,58.8,18.0,30.19,SSE,166,2.0,7.0,20,0.00,,,0.00,weatherlink.com 1.10,2013-11-15 20:15:00,
2013-11-15 15:30:00,58.8,18.0,30.19,South,186,2.0,7.0,20,0.00,,,0.00,weatherlink.com 1.10,2013-11-15 20:30:00,
2013-11-15 15:45:00,58.6,17.0,30.19,SE,133,4.0,7.0,20,0.00,,,0.00,weatherlink.com 1.10,2013-11-15 20:45:00,
2013-11-15 16:00:00,58.5,16.0,30.19,SSE,149,3.0,6.0,19,0.00,,,0.00,weatherlink.com 1.10,2013-11-15 21:00:00,
2013-11-15 16:15:00,57.5,17.0,30.19,South,173,2.0,4.0,20,0.00,,,0.00,weatherlink.com 1.10,2013-11-15 21:15:00,
2013-11-15 16:30:00,56.2,20.0,30.19,SE,144,4.0,6.0,24,0.00,,,0.00,weatherlink.com 1.10,2013-11-15 21:30:00,
2013-11-15 16:45:00,55.0,22.0,30.19,South,181,3.0,7.0,28,0.00,,,0.00,weatherlink.com 1.10,2013-11-15 21:45:00,
2013-11-15 17:00:00,54.3,22.0,30.20,SSE,148,2.0,5.0,29,0.00,,,0.00,weatherlink.com 1.10,2013-11-15 22:00:00,
2013-11-15 17:15:00,53.6,23.0,30.20,SE,145,0.0,2.0,30,0.00,,,0.00,weatherlink.com 1.10,2013-11-15 22:15:00,
2013-11-15 17:30:00,52.2,21.0,30.20,SE,145,0.0,0.0,30,0.00,,,0.00,weatherlink.com 1.10,2013-11-15 22:30:00,
2013-11-15 17:45:00,51.0,22.0,30.20,SE,145,0.0,1.0,32,0.00,,,0.00,weatherlink.com 1.10,2013-11-15 22:45:00,
2013-11-15 18:00:00,49.1,22.0,30.20,NE,36,0.0,2.0,35,0.00,,,0.00,weatherlink.com 1.10,2013-11-15 23:00:00,
2013-11-15 18:15:00,48.6,23.0,30.20,NE,35,0.0,0.0,36,0.00,,,0.00,weatherlink.com 1.10,2013-11-15 23:15:00,
2013-11-15 18:30:00,48.0,22.0,30.20,South,188,1.0,2.0,36,0.00,,,0.00,weatherlink.com 1.10,2013-11-15 23:30:00,
2013-11-15 18:45:00,47.8,21.0,30.20,NNW,337,0.0,1.0,35,0.00,,,0.00,weatherlink.com 1.10,2013-11-15 23:45:00,
2013-11-15 19:00:00,46.9,23.0,30.20,ESE,120,0.0,1.0,39,0.00,,,0.00,weatherlink.com 1.10,2013-11-16 00:00:00,
2013-11-15 19:15:00,46.9,26.0,30.20,ESE,114,0.0,1.0,44,0.00,,,0.00,weatherlink.com 1.10,2013-11-16 00:15:00,
2013-11-15 19:30:00,46.9,26.0,30.21,ESE,114,0.0,1.0,44,0.00,,,0.00,weatherlink.com 1.10,2013-11-16 00:30:00,
2013-11-15 19:45:00,47.1,25.0,30.21,SE,141,0.0,1.0,42,0.00,,,0.00,weatherlink.com 1.10,2013-11-16 00:45:00,
2013-11-15 20:00:00,49.0,25.0,30.21,SE,124,1.0,4.0,39,0.00,,,0.00,weatherlink.com 1.10,2013-11-16 01:00:00,
2013-11-15 20:15:00,50.4,25.0,30.21,SE,145,3.0,5.0,37,0.00,,,0.00,weatherlink.com 1.10,2013-11-16 01:15:00,
2013-11-15 20:30:00,51.4,24.0,30.21,South,186,4.0,8.0,35,0.00,,,0.00,weatherlink.com 1.10,2013-11-16 01:30:00,
2013-11-15 20:45:00,51.7,25.0,30.22,South,191,3.0,8.0,35,0.00,,,0.00,weatherlink.com 1.10,2013-11-16 01:45:00,
2013-11-15 21:00:00,51.6,25.0,30.22,SE,125,0.0,3.0,36,0.00,,,0.00,weatherlink.com 1.10,2013-11-16 02:00:00,
2013-11-15 21:15:00,49.4,26.0,30.22,SE,124,0.0,1.0,40,0.00,,,0.00,weatherlink.com 1.10,2013-11-16 02:15:00,
2013-11-15 21:30:00,47.4,26.0,30.23,NNW,327,0.0,1.0,44,0.00,,,0.00,weatherlink.com 1.10,2013-11-16 02:30:00,
2013-11-15 21:45:00,46.7,26.0,30.23,NNW,328,0.0,0.0,45,0.00,,,0.00,weatherlink.com 1.10,2013-11-16 02:45:00,
2013-11-15 22:01:00,46.6,28.0,30.23,NNW,332,0.0,1.0,49,0.00,,,0.00,weatherlink.com 1.10,2013-11-16 03:01:00,
2013-11-15 22:16:00,45.9,28.0,30.24,NNW,341,0.0,0.0,49,0.00,,,0.00,weatherlink.com 1.10,2013-11-16 03:16:00,
2013-11-15 22:31:00,45.3,28.0,30.24,WNW,294,0.0,1.0,52,0.00,,,0.00,weatherlink.com 1.10,2013-11-16 03:31:00,
2013-11-15 23:01:00,45.2,27.0,30.26,SE,141,0.0,1.0,50,0.00,,,0.00,weatherlink.com 1.10,2013-11-16 04:01:00,
2013-11-15 23:16:00,45.2,28.0,30.27,East,96,0.0,1.0,52,0.00,,,0.00,weatherlink.com 1.10,2013-11-16 04:16:00,
2013-11-15 23:31:00,45.2,28.0,30.26,ESE,107,2.0,3.0,52,0.00,,,0.00,weatherlink.com 1.10,2013-11-16 04:31:00,
2013-11-15 23:46:00,45.4,31.0,30.26,SSW,202,1.0,2.0,58,0.00,,,0.00,weatherlink.com 1.10,2013-11-16 04:46:00,